User: anonymous
Location: Caltech
(34.1382°N, 118.1253°W)
Time: 02:59:42
(UTC-07:00)
Language:

Saudisat 1A - Orbit

View from above orbital plane
View from above orbital plane
View from above satellite
View from above satellite

Ground track
Ground track

The orbit data is extracted from the following two-line orbital elements,

1 26546U 00057B   14237.58173307  .00000794  00000-0  10229-3 0  3436
2 26546 064.5564 304.7882 0005312 257.1998 102.8518 14.88124488753726
Epoch (UTC): 25 August 2014 13:57:41
Eccentricity: 0.0005312
inclination: 64.5564°
perigee height: 600 km
apogee height: 607 km
right ascension of ascending node: 304.7882°
argument of perigee: 257.1998°
revolutions per day: 14.88124488
mean anomaly at epoch: 102.8518°
orbit number at epoch: 75372

The dashed part of the orbit path shows where the satellite is in the earth's shadow,  

DLR